Location: Palomar Mountain Lodge
(33.3110°N, 116.8495°W)
Time: 08:38:29
(UTC-08:00)

Hubble Space Telescope - Visible Passes

Search period start: 14 February 2026 00:00
Search period end: 24 February 2026 00:00
Orbit: 478 x 480 km, 28.5° (Epoch: 13 February)

Date Brightness Start Highest point End Pass type
(mag) Time Alt. Az. Time Alt. Az. Time Alt. Az.
14 Feb 3.3 06:07:14 10° S 06:08:53 12° SSE 06:10:32 10° SE visible
15 Feb 3.3 05:36:59 10° S 05:38:38 12° SSE 05:40:18 10° SE visible
16 Feb 3.2 05:06:43 10° S 05:08:23 13° SSE 05:10:04 10° SE visible
17 Feb 3.1 04:37:24 12° S 04:38:07 13° SSE 04:39:48 10° SE visible
18 Feb 3.5 04:09:04 11° SE 04:09:04 11° SE 04:09:32 10° SE visible
18 Feb 2.1 05:43:50 10° SW 05:47:09 30° S 05:50:29 10° ESE visible
19 Feb 2.0 05:14:44 18° SW 05:16:51 30° S 05:20:11 10° ESE visible
20 Feb 1.8 04:46:13 29° S 04:46:32 30° S 04:49:52 10° ESE visible
21 Feb 2.6 04:17:38 23° SE 04:17:38 23° SE 04:19:33 10° ESE visible
21 Feb 1.5 05:52:12 10° WSW 05:55:43 39° S 05:59:15 10° ESE visible
22 Feb 3.8 03:49:01 11° ESE 03:49:01 11° ESE 03:49:13 10° ESE visible
22 Feb 1.4 05:23:06 19° WSW 05:25:24 39° S 05:28:55 10° ESE visible
23 Feb 1.3 04:54:27 36° SSW 04:55:02 39° S 04:58:34 10° ESE visible
